Simultaneous Nadir Overpasses (SNOs) Predictions

Prediction of SNOs between LANDSAT-8 and NOAA-19 Satellite Orbit:

Table of predicted SNOs for the next 14.0 days since TLE Epoch: 10/11/2014
Index Date (LANDSAT-8) Time (LANDSAT-8) Lat,Lon (LANDSAT-8) SZA (LANDSAT-8 ) Date (NOAA-19) Time (NOAA-19) Lat,Lon (NOAA-19) SZA (NOAA-19 ) Distance(km) Time Diff (sec)
1 10/12/2014 12:00:36 72.84, 0.67 80.26 10/12/2014 11:59:27 72.91, -1.26 80.30 63.72 69
2 10/12/2014 12:50:14 -72.29, 167.28 100.30 10/12/2014 12:50:10 -72.30, 167.30 100.29 0.82 4
3 10/14/2014 17:34:32 -72.33, 96.27 99.43 10/14/2014 17:33:54 -72.32, 96.34 99.44 2.60 38
4 10/14/2014 18:23:59 72.24, -96.25 80.49 10/14/2014 18:25:00 72.23, -96.25 80.48 1.46 61
5 10/16/2014 22:18:50 -72.39, 25.30 98.56 10/16/2014 22:17:39 -72.40, 25.28 98.55 1.33 71
6 10/16/2014 23:08:17 72.30,-167.22 81.36 10/16/2014 23:08:44 72.27,-167.24 81.34 3.28 27
7 10/19/2014 03:52:36 72.33, 121.75 82.19 10/19/2014 03:52:28 72.32, 121.76 82.19 0.90 8
8 10/19/2014 04:42:07 -72.16, -70.92 97.97 10/19/2014 04:43:20 -72.11, -70.55 98.00 13.52 73
9 10/21/2014 08:36:54 72.38, 50.76 83.03 10/21/2014 08:36:11 72.38, 50.75 83.03 0.31 43
10 10/21/2014 09:26:24 -72.27,-141.82 97.08 10/21/2014 09:27:06 -72.30,-141.83 97.04 3.66 42
11 10/23/2014 13:21:11 72.56, -20.00 83.99 10/23/2014 13:19:59 72.64, -20.69 84.06 24.62 72
12 10/23/2014 14:10:43 -72.34, 147.23 96.23 10/23/2014 14:10:50 -72.33, 147.20 96.23 0.92 7
